Regional Weather Roundup
Issued by NWS Charleston, SC

Current Version | Previous Version | Graphics & Text | Print | Product List | Glossary On
Versions: 1 2 3 4 5 6 7 8 9 10 11 12 13 14 15 16 17 18 19 20 21 22 23 24 25 26 27 28 29 30 31 32 33 34 35 36 37 38 39 40 41 42 43 44 45 46 47 48 49 50
000 ASUS42 KCHS 232112 RWRCHS Regional Weather Roundup National Weather Service Charleston SC 500 PM EDT MON APR 23 2018 NOTE: "fair" indicates few or no clouds below 12,000 feet with no significant weather and/or obstructions to visibility. Not all stations are quality controlled. Use data with caution, especially dewpoint observations. SCZ027-030-031-034>040-042>050-232200- ...Southeast South Carolina... CITY SKY/WX TMP DP RH WIND PRES REMARKS N Charleston LGT RAIN 67 65 93 E22G32 30.00F FOG Waterfront Prk N/A 65 65 100 E26 29.86F Mount Pleasant RAIN 64 64 100 E17G29 30.01F Johns Island LGT RAIN 66 66 100 E24G32 29.98F VSB 1 Pinopolis NOT AVBL Moncks Corner RAIN 64 63 94 SE14G20 30.02F Summerville LGT RAIN 64 63 94 E12G20 30.01S Beaufort MCAS LGT RAIN 68 68 100 SE12 29.95F FOG Beaufort Arpt DRIZZLE 68 66 94 SE9G20 29.95F Hilton Head Is CLOUDY 68 66 94 SE8 29.97F FOG Walterboro DRIZZLE 64 64 100 E10G23 29.98F Allendale MOCLDY 68 68 100 SE9G17 29.95F ...Southern Midlands and Pee Dee... CITY SKY/WX TMP DP RH WIND PRES REMARKS Georgetown LGT RAIN 63 63 100 E18G26 30.09S Kingstree RAIN 63 63 100 E18G31 30.05S Orangeburg HVY RAIN 64 63 96 E5 30.01R FOG Barnwell CLOUDY 68 66 94 E12 29.97S Aiken DRIZZLE 63 63 100 E8 30.01F Manning LGT RAIN 59 59 100 SE8G17 30.02F Columbia LGT RAIN 65 64 97 E17 30.01R FOG Sumter DRIZZLE 64 60 90 E15G22 30.00F Florence LGT RAIN 63 60 90 E18G33 30.07F Myrtle Beach LGT RAIN 64 61 90 E16G29 30.12F N Myrtle Beach LGT RAIN 64 60 87 E20G30 30.12F $$ GAZ063-065-086>088-099>101-113>116-118-119-134>141-150-232200- ...Southeast Georgia... CITY SKY/WX TMP DP RH WIND PRES REMARKS Savannah Arpt PTSUNNY 71 70 96 SE13 29.93F Hunter AAF PTSUNNY 71 68 90 SE8 29.91F Fort Stewart CLOUDY 73 70 88 E7 29.89F Statesboro PTSUNNY 78 65 64 SE8 29.91F Sylvania MOCLDY 75 72 88 SE7 29.93F Claxton MOCLDY 77 70 78 E8 29.91F ...CSRA, Central and far Southeast Georgia... CITY SKY/WX TMP DP RH WIND PRES REMARKS Thomson CLOUDY 67 62 84 SE13 29.98F Augusta-Bush CLOUDY 68 65 90 E8 29.94F Augusta-Daniel CLOUDY 68 65 90 E9 29.95F Swainsboro FAIR 73 68 83 E7 29.91F Vidalia PTSUNNY 79 70 73 E7 29.88F Eastman HVY RAIN 72 57 60 SE3G21 29.90F Hazlehurst FAIR 83 64 52 S5 29.86F Alma FAIR 82 67 60 S8 29.87F Waycross FAIR 77 73 90 CALM 29.88F Jesup NOT AVBL Baxley PTSUNNY 81 64 57 SE9 29.87F Brunswick FAIR 72 64 78 SE9 29.92F Saint Simons FAIR 70 67 90 SE12 29.92F $$ SCZ027-028-034-036>038-045-046-048>050-GAZ119-141-232200- ...Lake and Supplemental Coastal Observations... STATION/POSITION TIME TEMP WIND PRES WAVE SWELL AIR SEA DIR/SP/G HT/PER HT/PER/DIR (UTC) (F) (DEG/KT/KT) (MB) (FT/S) (FT/S/D) Winyah Bay 1945 65 90/ 21 1019.0 Lake Murray 2020 63 110/ 12/ 15 1015.9 ACE Basin NERRS 1945 67 350/ 7 N/A Fort Pulaski 2048 68 65 140/ 5/ 7 1014.5F Sapelo Island 2000 71 140/ 8 1014.0 $$ ANZ835-935-AMZ111-154-330-350-352-354-370-450-454-472-232200- ...C-MAN and Buoy Observations... STATION/POSITION TIME TEMP WIND PRES WAVE SWELL AIR SEA DIR/SP/G HT/PER HT/PER/DIR (UTC) (F) (DEG/KT/KT) (MB) (FT/S) (FT/S/D) Buoy 41004 2050 68 67 120/ 25/ 35 1016.6F 13/ 9 Buoy 41008 2050 67 65 130/ 10/ 12 1013.1F 6/ 9 5/100/ 9 Folly Beach CMAN 2000 65 100/ 26/ 29 1016.8F Capers Nearshore 2008 65 63 120/ 21/ 29 1016.9F Fripp Nearshore NOT AVBL STATION/POSITION TIME TEMP WIND PRES WAVE SWELL AIR SEA DIR/SP/G HT/PER HT/PER/DIR (UTC) (F) (DEG/KT/KT) (MB) (FT/S) (FT/S/D) 5E St. Marys GA 2030 68 N/A 6/ 8 2/100/11 Frying Pan Buoy 2050 68 70 100/ 29/ 35 1021.2F 9/ 8 Buoy 41025 2100 67 73 100/ 19/ 23 1027.0 Cape Lookout NC 2000 100/ 19/ 21 1026.1F Buoy 41002 2050 69 72 110/ 19/ 23 1023.3F 6/ 6 2/ 60/11 Buoy 41010 2050 72 75 110/ 21/ 29 1016.2F 9/ 8 5/100/12 St Augustine FL 2100 71 69 150/ 15/ 17 1013.1F $$

USA.gov is the U.S. government's official web portal to all federal, state and local government web resources and services.